Home   Weather   Wolfsburg   Past weeks

Flag for Germany Past Weather in Wolfsburg, Lower Saxony, Germany — Yesterday and Last 2 Weeks

Now
48 °F

Drizzle. Mostly cloudy.


Feels Like: 42 °F
Forecast: 43 / 49 °F
Wind: 18 mph from West

Location: Braunschweig Wolfsburg

Current Time: Feb 20, 2017 at 7:09:32 pm

Latest Report: Feb 20, 2017 at 6:20 pm


Visibility: 6 mi

Pressure: 29.80 "Hg

Humidity: 100%

Dew Point: 48 °F

Location of WolfsburgLocation

Past Weather in Wolfsburg — Graph

°F

Wolfsburg Temperature Yesterday

Maximum temperature yesterday: 43 °F (at 12:20 pm)
Minimum temperature yesterday: 37 °F (at 7:50 am)
Average temperature yesterday: 41 °F

High & Low Weather Summary for the Past Weeks

 TemperatureHumidityPressure
High52 °F (Feb 15, 3:20 pm)100% (Feb 5, 5:20 pm)30.60 "Hg (Feb 5, 5:20 pm)
Low21 °F (Feb 14, 7:20 am)40% (Feb 15, 1:20 pm)29.68 "Hg (Feb 5, 5:20 pm)
Average35 °F82%30.31 "Hg
* Reported Feb 5 5:20 pm — Feb 20 5:20 pm, Wolfsburg, Weather by CustomWeather, © 2017

Note: Actual official high and low records may vary slightly from our data, if they occured in-between our weather recording intervals... More about our weather records

Advertising

Wolfsburg Weather History for the Previous 24 Hours

Scroll right to see more
 ConditionsComfort  
Time TempWeatherWind HumidityBarometerVisibility
5:20 pm
Mon, Feb 20
48 °FDrizzle. Fog.18 mph100%29.80 "Hg3 mi
4:20 pm48 °FDrizzle. Overcast.15 mph100%29.80 "HgN/A
3:50 pm48 °FMore clouds than sun.18 mph100%29.83 "Hg6 mi
3:20 pm46 °FCloudy.13 mph100%29.83 "Hg4 mi
2:50 pm46 °FDrizzle. Fog.14 mph100%29.86 "Hg2 mi
2:20 pm46 °FDrizzle. Fog.13 mph100%29.86 "Hg2 mi
1:20 pm46 °FDrizzle. Fog.16 mph100%29.89 "Hg2 mi
12:20 pm46 °FDrizzle. Overcast.18 mph93%29.92 "Hg4 mi
11:50 am46 °FOvercast.17 mph93%29.92 "HgN/A
11:20 am46 °FOvercast.15 mph93%29.92 "HgN/A
10:20 am45 °FOvercast.14 mph93%29.95 "HgN/A
9:50 am45 °FOvercast.15 mph93%29.95 "HgN/A
9:20 am45 °FOvercast.15 mph93%29.95 "HgN/A
8:20 am43 °FOvercast.13 mph100%29.98 "HgN/A
7:50 am43 °FOvercast.13 mph100%30.01 "Hg6 mi
7:20 am43 °FOvercast.12 mph100%30.01 "Hg4 mi
6:50 am43 °FOvercast.10 mph100%30.01 "Hg4 mi
Weather by CustomWeather, © 2017

See weather overviewHow to use our weather pages